Weather History for KJWG - February, 2012

Change the Weather History Date:

Friday, February 3, 2012

  Actual Average Record
Temperature  
Mean Temperature 52 °F -  
Max Temperature 59 °F 48 °F 79 °F (1962)
Min Temperature 44 °F 26 °F -4 °F (1989)
Degree Days  
Heating Degree Days 14    
Growing Degree Days 2 (Base 50)    
Moisture  
Dew Point 52 °F    
Average Humidity 100    
Maximum Humidity 100    
Minimum Humidity 100    
Precipitation  
Precipitation 1.15 in - - ()
Sea Level Pressure  
Sea Level Pressure 29.93 in    
Wind  
Wind Speed 17 mph (ENE)    
Max Wind Speed 26 mph    
Max Gust Speed 34 mph    
Visibility 8 miles    
Events Rain , Thunderstorm    
Averages and records for this station are not official NWS values.
T = Trace of Precipitation, MM = Missing Value Source: NWS Daily Summary

Daily Weather History Graph

Daily Weather History Graph

Search for Another Location

Airport or City:

Trip Planner

Search our weather history database for the weather conditions in past years. The results will help you decide how hot, cold, wet, or windy it might be!

Date:

Astronomy

Feb. 03, 2012 Rise Set
Actual Time 7:32 AM CST 6:02 PM CST
Civil Twilight 7:06 AM CST 6:29 PM CST
Nautical Twilight 6:35 AM CST 6:59 PM CST
Astronomical Twilight 6:05 AM CST 7:29 PM CST
Moon 2:09 PM CST 4:05 AM CST
Length of Visible Light 11h 23m
Length of Day
10h 29m
Waxing Gibbous, 82% of the Moon is Illuminated
Feb 3
Waxing Gibbous
Feb 7
Full
Feb 14
Last Quarter
Feb 21
New
Feb 29
First Quarter

Hourly Weather History & Observations

Time (CST) Temp. Windchill Dew Point Humidity Pressure Visibility Wind Dir Wind Speed Gust Speed Precip Events Conditions
12:35 AM 57.2 °F - 57.2 °F 100% 29.88 in 7.0 mi South 18.4 mph 23.0 mph N/A   Overcast
12:55 AM 57.2 °F - 57.2 °F 100% 29.89 in 7.0 mi South 19.6 mph 28.8 mph N/A   Overcast
1:15 AM 57.2 °F - 57.2 °F 100% 29.89 in 5.0 mi South 19.6 mph 27.6 mph N/A   Overcast
1:35 AM 57.2 °F - 57.2 °F 100% 29.89 in 5.0 mi South 15.0 mph 23.0 mph N/A   Drizzle
1:55 AM 57.2 °F - 57.2 °F 100% 29.89 in 5.0 mi South 13.8 mph 23.0 mph 0.01 in Rain , Thunderstorm Light Thunderstorms and Rain
2:15 AM 57.2 °F - 57.2 °F 100% 29.89 in 5.0 mi South 16.1 mph 25.3 mph 0.01 in Rain , Thunderstorm Light Thunderstorms and Rain
2:35 AM 57.2 °F - 57.2 °F 100% 29.89 in 4.0 mi South 16.1 mph 24.2 mph 0.02 in Rain , Thunderstorm Light Thunderstorms and Rain
2:55 AM 57.2 °F - 57.2 °F 100% 29.89 in 5.0 mi South 16.1 mph 23.0 mph 0.03 in   Overcast
3:15 AM 57.2 °F - 57.2 °F 100% 29.89 in 5.0 mi South 12.7 mph 21.9 mph N/A   Overcast
3:35 AM 57.2 °F - 57.2 °F 100% 29.89 in 5.0 mi South 13.8 mph 19.6 mph N/A Thunderstorm Overcast
3:55 AM 59.0 °F - 59.0 °F 100% 29.89 in 7.0 mi SSW 17.3 mph 23.0 mph N/A Rain , Thunderstorm Light Thunderstorms and Rain
4:15 AM 59.0 °F - 59.0 °F 100% 29.91 in 7.0 mi SSW 15.0 mph 20.7 mph N/A Thunderstorm Drizzle
4:35 AM 59.0 °F - 55.4 °F 88% 29.95 in 7.0 mi NNW 6.9 mph 23.0 mph N/A   Overcast
5:15 AM 50.0 °F - 50.0 °F 100% 29.95 in 10.0 mi NE 10.4 mph - 0.02 in Rain Light Rain
5:35 AM 50.0 °F - 50.0 °F 100% 29.93 in 7.0 mi ENE 11.5 mph - 0.04 in Rain , Thunderstorm Light Thunderstorms and Rain
5:55 AM 50.0 °F - 50.0 °F 100% 29.94 in 7.0 mi NE 11.5 mph - 0.05 in Rain Rain
6:15 AM 50.0 °F - 50.0 °F 100% 29.93 in 4.0 mi East 13.8 mph - 0.15 in Rain Rain
6:35 AM 50.0 °F - 50.0 °F 100% 29.92 in 10.0 mi East 16.1 mph - 0.18 in Rain Light Rain
6:55 AM 50.0 °F - 50.0 °F 100% 29.92 in 4.0 mi East 16.1 mph - 0.32 in Rain Heavy Rain
7:15 AM 50.0 °F - 50.0 °F 100% 29.93 in 7.0 mi ESE 10.4 mph - 0.03 in Rain , Thunderstorm Light Thunderstorms and Rain
7:35 AM 50.0 °F - 50.0 °F 100% 29.93 in 10.0 mi East 12.7 mph - 0.03 in Rain Light Rain
7:55 AM 50.0 °F - 50.0 °F 100% 29.93 in 10.0 mi East 16.1 mph - 0.05 in Rain Light Rain
8:15 AM 51.8 °F - 51.8 °F 100% 29.93 in 7.0 mi ESE 19.6 mph - 0.02 in Rain Light Rain
8:35 AM 51.8 °F - 51.8 °F 100% 29.93 in 7.0 mi ESE 13.8 mph 24.2 mph 0.03 in Rain Light Rain
8:55 AM 51.8 °F - 51.8 °F 100% 29.91 in 7.0 mi ESE 23.0 mph 28.8 mph 0.03 in Rain , Thunderstorm Light Thunderstorms and Rain
9:35 AM 51.8 °F - 51.8 °F 100% 29.91 in 7.0 mi ESE 17.3 mph 26.5 mph 0.05 in Rain , Thunderstorm Thunderstorms and Rain
9:55 AM 51.8 °F - 51.8 °F 100% 29.93 in 2.5 mi ESE 15.0 mph - 0.17 in Rain , Thunderstorm Heavy Thunderstorms and Rain
10:15 AM 50.0 °F - 50.0 °F 100% 29.93 in 10.0 mi NNE 15.0 mph - 0.02 in Rain , Thunderstorm Light Thunderstorms and Rain
10:35 AM 51.8 °F - 51.8 °F 100% 29.96 in 5.0 mi North 11.5 mph - 0.03 in Rain Light Rain
10:55 AM 50.0 °F - 50.0 °F 100% 29.93 in 3.0 mi NE 26.5 mph 29.9 mph 0.08 in Rain , Thunderstorm Rain
11:15 AM 50.0 °F - 50.0 °F 100% 29.92 in 5.0 mi NE 25.3 mph - 0.03 in Rain , Thunderstorm Light Thunderstorms and Rain
11:35 AM 50.0 °F - 50.0 °F 100% 29.96 in 4.0 mi NNE 18.4 mph 26.5 mph 0.17 in Rain Light Rain
11:55 AM 50.0 °F - 50.0 °F 100% 29.93 in 3.0 mi NE 20.7 mph 28.8 mph 0.30 in Rain Light Rain
12:15 PM 50.0 °F - 50.0 °F 100% 29.95 in 10.0 mi NNE 19.6 mph - 0.01 in Rain , Thunderstorm Light Thunderstorms and Rain
12:35 PM 51.8 °F - 51.8 °F 100% 29.91 in 2.0 mi ENE 26.5 mph 34.5 mph 0.24 in Rain , Thunderstorm Light Thunderstorms and Rain
12:55 PM 51.8 °F - 51.8 °F 100% 29.92 in 10.0 mi East 24.2 mph 28.8 mph 0.24 in   Mostly Cloudy
1:15 PM 51.8 °F - 51.8 °F 100% 29.92 in 10.0 mi East 20.7 mph 27.6 mph N/A   Overcast
1:35 PM 51.8 °F - 51.8 °F 100% 29.91 in 10.0 mi East 20.7 mph 26.5 mph N/A Thunderstorm Overcast
1:55 PM 51.8 °F - 51.8 °F 100% 29.91 in 10.0 mi ENE 19.6 mph 24.2 mph N/A   Overcast
2:15 PM 51.8 °F - 51.8 °F 100% 29.91 in 10.0 mi East 17.3 mph - N/A   Overcast
2:35 PM 51.8 °F - 51.8 °F 100% 29.90 in 10.0 mi East 10.4 mph - N/A Thunderstorm Overcast
2:55 PM 51.8 °F - 51.8 °F 100% 29.90 in 10.0 mi East 16.1 mph - N/A   Overcast
3:15 PM 51.8 °F - 51.8 °F 100% 29.92 in 10.0 mi East 10.4 mph - N/A   Overcast
3:35 PM 51.8 °F - 51.8 °F 100% 29.91 in 10.0 mi East 13.8 mph - N/A   Overcast
3:55 PM 53.6 °F - 53.6 °F 100% 29.91 in 10.0 mi ENE 10.4 mph - N/A   Overcast
4:15 PM 51.8 °F - 51.8 °F 100% 29.92 in 10.0 mi ENE 10.4 mph - N/A   Overcast
4:35 PM 53.6 °F - 53.6 °F 100% 29.91 in 10.0 mi ENE 10.4 mph - N/A   Overcast
4:55 PM 51.8 °F - 51.8 °F 100% 29.93 in 10.0 mi NE 8.1 mph - N/A   Overcast
5:15 PM 51.8 °F - 51.8 °F 100% 29.94 in 10.0 mi ENE 6.9 mph - N/A   Overcast
5:35 PM 51.8 °F - 51.8 °F 100% 29.96 in 10.0 mi NW 5.8 mph - N/A   Overcast
5:55 PM 51.8 °F - 51.8 °F 100% 29.96 in 10.0 mi North 4.6 mph - N/A   Overcast
6:15 PM 51.8 °F - 51.8 °F 100% 29.96 in 10.0 mi North 3.5 mph - N/A   Overcast
6:35 PM 51.8 °F - 51.8 °F 100% 29.97 in 10.0 mi NW 8.1 mph - N/A   Overcast
6:55 PM 48.2 °F - 48.2 °F 100% 29.98 in 7.0 mi NW 18.4 mph - N/A   Overcast
7:15 PM 46.4 °F 39.0 °F 46.4 °F 100% 29.99 in 2.5 mi NNW 19.6 mph 25.3 mph N/A   Drizzle
7:35 PM 46.4 °F 39.2 °F 46.4 °F 100% 30.00 in 5.0 mi NNW 18.4 mph 24.2 mph N/A Rain Light Rain
7:55 PM 46.4 °F 39.0 °F 46.4 °F 100% 30.01 in 7.0 mi NNW 19.6 mph 25.3 mph N/A   Overcast
8:15 PM 44.6 °F 36.4 °F 44.6 °F 100% 30.01 in 10.0 mi NNW 20.7 mph - N/A   Light Drizzle
8:35 PM 44.6 °F 36.9 °F 44.6 °F 100% 30.02 in 10.0 mi NNW 18.4 mph 27.6 mph N/A   Overcast
8:55 PM 44.6 °F 37.4 °F 44.6 °F 100% 30.02 in 10.0 mi NNW 16.1 mph 23.0 mph N/A   Overcast
9:15 PM 44.6 °F 37.2 °F 44.6 °F 100% 30.03 in 10.0 mi NNW 17.3 mph 24.2 mph N/A   Overcast
9:35 PM 44.6 °F 36.1 °F 44.6 °F 100% 30.04 in 10.0 mi NNW 21.9 mph 26.5 mph N/A   Mostly Cloudy
9:55 PM 42.8 °F 32.9 °F 42.8 °F 100% 30.05 in 10.0 mi NW 26.5 mph 33.4 mph N/A   Overcast
10:15 PM 42.8 °F 34.5 °F 42.8 °F 100% 30.06 in 10.0 mi NW 18.4 mph 26.5 mph N/A   Scattered Clouds
10:35 PM 42.8 °F 35.1 °F 42.8 °F 100% 30.07 in 10.0 mi NW 16.1 mph 25.3 mph N/A   Clear
10:55 PM 41.0 °F 33.1 °F 41.0 °F 100% 30.08 in 10.0 mi NW 15.0 mph - N/A   Clear
11:15 PM 41.0 °F 33.5 °F 41.0 °F 100% 30.08 in 10.0 mi NW 13.8 mph - N/A   Clear
11:35 PM 41.0 °F 33.9 °F 41.0 °F 100% 30.08 in 10.0 mi NNW 12.7 mph 18.4 mph N/A   Clear
11:55 PM 41.0 °F 34.7 °F 41.0 °F 100% 30.09 in 10.0 mi NNW 10.4 mph - N/A   Clear